THY225 DAAG-LTFM

Flight info

Callsign THY225
Flight time 2h 48m
Altitude 41000
Route BABOR1C BABOR UZ888 DIMAO UW254 TUC DCT CBN UL869 TUPAL/N0482F400 DCT MEGAN DCT LATAN/N0486F410 DCT PEREN UN644 DIGTI UT162 DRAMO
Aircraft A359/H-SDE2E3GHIJ3J4J5LM1ORWXY/LB1D1

Departure

Time 2026-05-08 15:36
Airport Houari Boumediene Airport (DAAG)

Arrival

Time 2026-05-08 18:24
Airport İstanbul Airport (LTFM)
Time Latitude Longitude Altitude Speed Heading
2026-05-08 15:02 36.69708 3.20499 -124 ft 2 kts 51°
2026-05-08 15:03 36.69907 3.20835 136 ft 33 kts 58°
2026-05-08 15:03 36.69935 3.20912 70 ft 0 kts 79°
2026-05-08 15:03 36.69934 3.20912 70 ft 0 kts 79°
2026-05-08 15:05 36.69708 3.20498 76 ft 0 kts 50°
2026-05-08 15:22 36.69701 3.20487 76 ft 2 kts 50°
2026-05-08 15:22 36.69692 3.20474 63 ft 2 kts 50°
2026-05-08 15:23 36.69683 3.20461 63 ft 2 kts 50°
2026-05-08 15:23 36.69674 3.20448 69 ft 2 kts 49°
2026-05-08 15:23 36.69665 3.20434 65 ft 2 kts 49°
2026-05-08 15:23 36.69656 3.20421 65 ft 2 kts 50°
2026-05-08 15:24 36.69648 3.20408 65 ft 2 kts 56°
2026-05-08 15:24 36.69643 3.20397 65 ft 1 kts 80°
2026-05-08 15:24 36.69642 3.20385 65 ft 2 kts 99°
2026-05-08 15:24 36.69644 3.20376 65 ft 1 kts 134°
2026-05-08 15:25 36.69649 3.20371 65 ft 1 kts 171°
2026-05-08 15:25 36.69660 3.20370 65 ft 2 kts 181°
2026-05-08 15:25 36.69668 3.20371 65 ft 1 kts 182°
2026-05-08 15:25 36.69674 3.20371 65 ft 1 kts 182°
2026-05-08 15:26 36.69679 3.20371 65 ft 1 kts 182°
2026-05-08 15:26 36.69683 3.20371 65 ft 0 kts 182°
2026-05-08 15:29 36.69680 3.20371 65 ft 5 kts 182°
2026-05-08 15:29 36.69586 3.20368 73 ft 17 kts 182°
2026-05-08 15:29 36.69456 3.20403 70 ft 19 kts 121°
2026-05-08 15:30 36.69441 3.20579 76 ft 23 kts 91°
2026-05-08 15:30 36.69435 3.20804 66 ft 25 kts 96°
2026-05-08 15:30 36.69388 3.20926 72 ft 17 kts 102°
2026-05-08 15:30 36.69386 3.21101 76 ft 23 kts 88°
2026-05-08 15:31 36.69383 3.21328 72 ft 29 kts 91°
2026-05-08 15:31 36.69385 3.21603 76 ft 34 kts 90°
2026-05-08 15:31 36.69384 3.21841 78 ft 0 kts 92°
2026-05-08 15:32 36.69380 3.21607 77 ft 0 kts 92°
2026-05-08 15:33 36.69381 3.21583 74 ft 0 kts 92°
2026-05-08 15:34 36.69380 3.21650 76 ft 16 kts 89°
2026-05-08 15:34 36.69380 3.21849 78 ft 30 kts 91°
2026-05-08 15:35 36.69443 3.22121 88 ft 38 kts 51°
2026-05-08 15:35 36.69647 3.22447 87 ft 73 kts 52°
2026-05-08 15:35 36.70103 3.23193 91 ft 141 kts 52°
2026-05-08 15:35 36.70794 3.24345 358 ft 179 kts 51°
2026-05-08 15:36 36.71562 3.25589 1193 ft 182 kts 50°
2026-05-08 15:36 36.72158 3.26309 1896 ft 178 kts 38°
2026-05-08 15:36 36.73674 3.27037 2718 ft 189 kts
2026-05-08 15:36 36.74971 3.26463 2936 ft 213 kts 323°
2026-05-08 15:37 36.75909 3.24924 3218 ft 237 kts 292°
2026-05-08 15:37 36.76159 3.22834 3602 ft 252 kts 264°
2026-05-08 15:37 36.75822 3.20653 4217 ft 259 kts 252°
2026-05-08 15:37 36.75058 3.18617 4755 ft 261 kts 233°
2026-05-08 15:38 36.73704 3.17150 4962 ft 259 kts 206°
2026-05-08 15:38 36.71953 3.16764 5032 ft 261 kts 174°
2026-05-08 15:38 36.70276 3.17643 5377 ft 270 kts 143°
2026-05-08 15:38 36.69169 3.19558 6047 ft 281 kts 113°
2026-05-08 15:39 36.68796 3.21987 6650 ft 291 kts 97°
2026-05-08 15:39 36.68915 3.24532 7242 ft 298 kts 82°
2026-05-08 15:39 36.69532 3.27022 7861 ft 304 kts 67°
2026-05-08 15:39 36.70607 3.29267 8447 ft 309 kts 52°
2026-05-08 15:40 36.72120 3.31177 9095 ft 311 kts 37°
2026-05-08 15:40 36.73968 3.32583 9769 ft 311 kts 21°
2026-05-08 15:40 36.76028 3.33400 10287 ft 315 kts
2026-05-08 15:40 36.78241 3.33605 10541 ft 325 kts 353°
2026-05-08 15:41 36.80567 3.33600 10774 ft 344 kts
2026-05-08 15:41 36.82913 3.34488 11007 ft 365 kts 25°
2026-05-08 15:41 36.84988 3.36415 11234 ft 380 kts 46°
2026-05-08 15:41 36.86474 3.39168 11593 ft 388 kts 66°
2026-05-08 15:42 36.87223 3.42406 12044 ft 390 kts 81°
2026-05-08 15:42 36.87300 3.45782 12488 ft 389 kts 100°
2026-05-08 15:42 36.86535 3.48952 12940 ft 385 kts 120°
2026-05-08 15:42 36.84999 3.51642 13401 ft 379 kts 140°
2026-05-08 15:43 36.82887 3.53560 13853 ft 374 kts 156°
2026-05-08 15:43 36.80601 3.55130 14240 ft 379 kts 152°
2026-05-08 15:43 36.78549 3.57251 14642 ft 390 kts 137°
2026-05-08 15:43 36.77056 3.60120 15073 ft 403 kts 116°
2026-05-08 15:44 36.76214 3.63487 15464 ft 410 kts 107°
2026-05-08 15:44 36.75542 3.66966 15828 ft 415 kts 106°
2026-05-08 15:44 36.74872 3.70478 16234 ft 418 kts 107°
2026-05-08 15:44 36.74187 3.74014 16637 ft 421 kts 107°
2026-05-08 15:45 36.73487 3.77584 17025 ft 425 kts 107°
2026-05-08 15:45 36.72776 3.81178 17379 ft 429 kts 107°
2026-05-08 15:45 36.72059 3.84798 17808 ft 432 kts 107°
2026-05-08 15:45 36.71326 3.88440 18216 ft 434 kts 108°
2026-05-08 15:46 36.70582 3.92108 18552 ft 438 kts 108°
2026-05-08 15:46 36.69838 3.95796 18930 ft 440 kts 108°
2026-05-08 15:46 36.69090 3.99511 19249 ft 444 kts 108°
2026-05-08 15:46 36.68333 4.03268 19591 ft 447 kts 108°
2026-05-08 15:47 36.67574 4.07037 19879 ft 451 kts 108°
2026-05-08 15:47 36.66819 4.10791 20217 ft 453 kts 109°
2026-05-08 15:47 36.66048 4.14603 20543 ft 455 kts 108°
2026-05-08 15:47 36.65272 4.18444 20882 ft 458 kts 108°
2026-05-08 15:48 36.63691 4.26226 21963 ft 468 kts 108°
2026-05-08 15:48 36.62889 4.30166 22673 ft 472 kts 109°
2026-05-08 15:48 36.62077 4.34150 23343 ft 477 kts 109°
2026-05-08 15:49 36.61256 4.38173 23927 ft 481 kts 109°
2026-05-08 15:49 36.60425 4.42228 24447 ft 487 kts 109°
2026-05-08 15:49 36.59584 4.46330 24974 ft 492 kts 109°
2026-05-08 15:49 36.58731 4.50485 25522 ft 497 kts 109°
2026-05-08 15:50 36.57884 4.54603 26073 ft 501 kts 109°
2026-05-08 15:50 36.57013 4.58829 26596 ft 505 kts 109°
2026-05-08 15:50 36.56135 4.63078 27120 ft 510 kts 109°
2026-05-08 15:50 36.55245 4.67381 27654 ft 515 kts 109°
2026-05-08 15:51 36.54347 4.71710 28187 ft 519 kts 108°
2026-05-08 15:51 36.53441 4.76074 28722 ft 524 kts 108°
2026-05-08 15:51 36.52520 4.80498 29232 ft 529 kts 108°
2026-05-08 15:51 36.51595 4.84940 29717 ft 533 kts 108°
2026-05-08 15:52 36.50674 4.89355 30153 ft 537 kts 108°
2026-05-08 15:52 36.49733 4.93852 30516 ft 541 kts 108°
2026-05-08 15:52 36.48831 4.98427 30920 ft 547 kts 104°
2026-05-08 15:52 36.48384 5.03155 31317 ft 554 kts 95°
2026-05-08 15:53 36.48230 5.07964 31694 ft 559 kts 93°
2026-05-08 15:53 36.48175 5.12804 32025 ft 564 kts 92°
2026-05-08 15:53 36.48160 5.17712 32307 ft 568 kts 92°
2026-05-08 15:53 36.48151 5.22629 32646 ft 571 kts 92°
2026-05-08 15:54 36.48131 5.27580 32976 ft 574 kts 92°
2026-05-08 15:54 36.48095 5.32559 33338 ft 577 kts 92°
2026-05-08 15:54 36.48044 5.37543 33830 ft 576 kts 92°
2026-05-08 15:54 36.47985 5.42522 34228 ft 577 kts 92°
2026-05-08 15:55 36.47919 5.47500 34668 ft 575 kts 93°
2026-05-08 15:55 36.47779 5.57346 35557 ft 571 kts 93°
2026-05-08 15:55 36.47706 5.62270 35953 ft 570 kts 93°
2026-05-08 15:56 36.47632 5.67197 36330 ft 570 kts 93°
2026-05-08 15:56 36.47556 5.72120 36684 ft 569 kts 93°
2026-05-08 15:56 36.47479 5.77038 37068 ft 569 kts 94°
2026-05-08 15:56 36.47427 5.80296 37355 ft 567 kts 94°
2026-05-08 15:57 36.47348 5.85174 37791 ft 565 kts 94°
2026-05-08 15:57 36.47270 5.90052 38203 ft 563 kts 94°
2026-05-08 15:57 36.47187 5.94918 38503 ft 564 kts 94°
2026-05-08 15:57 36.47099 5.99793 38775 ft 563 kts 94°
2026-05-08 15:58 36.47008 6.04653 39043 ft 562 kts 94°
2026-05-08 15:58 36.46917 6.09488 39384 ft 559 kts 94°
2026-05-08 15:58 36.46826 6.14302 39702 ft 557 kts 94°
2026-05-08 15:58 36.46733 6.19118 39997 ft 556 kts 94°
2026-05-08 15:59 36.46638 6.23909 40300 ft 554 kts 94°
2026-05-08 15:59 36.46542 6.28684 40585 ft 553 kts 94°
2026-05-08 15:59 36.46444 6.33453 40865 ft 552 kts 94°
2026-05-08 15:59 36.46345 6.38169 40980 ft 553 kts 94°
2026-05-08 16:00 36.46140 6.47710 41009 ft 552 kts 94°
2026-05-08 16:00 36.45927 6.57237 41004 ft 553 kts 94°
2026-05-08 16:01 36.45706 6.66792 41006 ft 553 kts 94°
2026-05-08 16:01 36.45478 6.76347 41001 ft 553 kts 94°
2026-05-08 16:02 36.45242 6.85903 40993 ft 553 kts 94°
2026-05-08 16:02 36.44999 6.95383 40988 ft 553 kts 94°
2026-05-08 16:03 36.44748 7.04929 40983 ft 552 kts 94°
2026-05-08 16:03 36.44488 7.14452 40979 ft 552 kts 94°
2026-05-08 16:04 36.44223 7.24004 40981 ft 552 kts 94°
2026-05-08 16:04 36.43951 7.33531 40975 ft 552 kts 94°
2026-05-08 16:05 36.43670 7.43056 40982 ft 552 kts 94°
2026-05-08 16:05 36.43382 7.52593 40992 ft 553 kts 94°
2026-05-08 16:06 36.43087 7.62070 40989 ft 553 kts 94°
2026-05-08 16:06 36.42783 7.71616 40989 ft 553 kts 94°
2026-05-08 16:07 36.42471 7.81168 40986 ft 553 kts 94°
2026-05-08 16:07 36.42151 7.90702 40991 ft 553 kts 95°
2026-05-08 16:08 36.41827 8.00185 40991 ft 553 kts 95°
2026-05-08 16:08 36.41494 8.09715 40986 ft 552 kts 95°
2026-05-08 16:09 36.41152 8.19225 40981 ft 552 kts 95°
2026-05-08 16:09 36.40803 8.28736 40983 ft 551 kts 95°
2026-05-08 16:10 36.41123 8.38255 40978 ft 553 kts 79°
2026-05-08 16:10 36.43095 8.47484 40982 ft 553 kts 72°
2026-05-08 16:11 36.45365 8.56559 40985 ft 554 kts 72°
2026-05-08 16:11 36.47680 8.65714 40981 ft 556 kts 72°
2026-05-08 16:12 36.49955 8.74881 40979 ft 557 kts 72°
2026-05-08 16:12 36.52218 8.84121 40987 ft 558 kts 72°
2026-05-08 16:13 36.54469 8.93362 40983 ft 559 kts 72°
2026-05-08 16:13 36.56712 9.02613 40985 ft 559 kts 72°
2026-05-08 16:14 36.58955 9.11868 40987 ft 559 kts 72°
2026-05-08 16:14 36.61190 9.21127 40989 ft 558 kts 72°
2026-05-08 16:15 36.63415 9.30406 40987 ft 559 kts 72°
2026-05-08 16:15 36.65628 9.39672 40992 ft 558 kts 72°
2026-05-08 16:16 36.67821 9.48885 40991 ft 558 kts 72°
2026-05-08 16:16 36.68850 9.53237 40987 ft 558 kts 73°
2026-05-08 16:17 36.70954 9.62153 40997 ft 557 kts 73°
2026-05-08 16:18 36.73134 9.71418 41002 ft 557 kts 73°
2026-05-08 16:18 36.75307 9.80685 41007 ft 557 kts 73°
2026-05-08 16:19 36.77472 9.89955 40998 ft 556 kts 73°
2026-05-08 16:19 36.79614 9.99164 40998 ft 556 kts 73°
2026-05-08 16:20 36.81767 10.08453 40994 ft 556 kts 73°
2026-05-08 16:20 36.83910 10.17736 40995 ft 556 kts 73°
2026-05-08 16:21 36.85339 10.27216 40992 ft 555 kts 85°
2026-05-08 16:21 36.85950 10.36831 40996 ft 554 kts 88°
2026-05-08 16:22 36.86428 10.46384 41003 ft 554 kts 88°
2026-05-08 16:22 36.86904 10.55998 41011 ft 553 kts 88°
2026-05-08 16:23 36.87387 10.65545 41022 ft 554 kts 88°
2026-05-08 16:23 36.87876 10.75169 41024 ft 554 kts 88°
2026-05-08 16:24 36.88358 10.84786 41021 ft 554 kts 88°
2026-05-08 16:24 36.88829 10.94364 41022 ft 554 kts 88°
2026-05-08 16:25 36.89629 11.03929 41021 ft 556 kts 76°
2026-05-08 16:25 36.90810 11.08547 41021 ft 553 kts 65°
2026-05-08 16:25 36.92606 11.12740 41019 ft 548 kts 52°
2026-05-08 16:26 36.97395 11.20077 41023 ft 544 kts 44°
2026-05-08 16:26 37.02493 11.27108 41029 ft 544 kts 43°
2026-05-08 16:27 37.07574 11.34093 41025 ft 546 kts 43°
2026-05-08 16:27 37.12669 11.41190 41022 ft 547 kts 43°
2026-05-08 16:28 37.17730 11.48298 41019 ft 548 kts 44°
2026-05-08 16:28 37.22790 11.55443 41027 ft 548 kts 44°
2026-05-08 16:29 37.27835 11.62588 41032 ft 548 kts 44°
2026-05-08 16:29 37.32892 11.69762 41037 ft 549 kts 44°
2026-05-08 16:30 37.37969 11.76977 41015 ft 549 kts 44°
2026-05-08 16:30 37.43014 11.84162 41021 ft 549 kts 44°
2026-05-08 16:31 37.48050 11.91353 41023 ft 549 kts 44°
2026-05-08 16:31 37.52903 11.98828 41019 ft 555 kts 54°
2026-05-08 16:32 37.54721 12.03121 41019 ft 558 kts 66°
2026-05-08 16:32 37.56187 12.07658 41013 ft 559 kts 67°
2026-05-08 16:32 37.58852 12.16865 41007 ft 560 kts 69°
2026-05-08 16:33 37.61418 12.26102 41003 ft 560 kts 69°
2026-05-08 16:33 37.64005 12.35348 40998 ft 560 kts 69°
2026-05-08 16:34 37.66623 12.44638 40995 ft 560 kts 69°
2026-05-08 16:34 37.69225 12.53865 40994 ft 560 kts 69°
2026-05-08 16:35 37.71833 12.63149 40993 ft 560 kts 69°
2026-05-08 16:35 37.74433 12.72442 40993 ft 561 kts 69°
2026-05-08 16:36 37.77028 12.81752 40992 ft 561 kts 69°
2026-05-08 16:36 37.79597 12.91002 40992 ft 561 kts 69°
2026-05-08 16:37 37.82173 13.00310 40989 ft 561 kts 69°
2026-05-08 16:37 37.84748 13.09644 40991 ft 561 kts 69°
2026-05-08 16:38 37.87311 13.18972 40993 ft 560 kts 69°
2026-05-08 16:38 37.89859 13.28279 40995 ft 560 kts 69°
2026-05-08 16:39 37.92403 13.37600 40994 ft 559 kts 69°
2026-05-08 16:39 37.94933 13.46909 40993 ft 559 kts 69°
2026-05-08 16:40 37.97444 13.56174 41000 ft 559 kts 69°
2026-05-08 16:40 37.99955 13.65483 41004 ft 558 kts 69°
2026-05-08 16:41 38.02463 13.74810 41003 ft 558 kts 69°
2026-05-08 16:42 38.06204 13.88774 41009 ft 557 kts 69°
2026-05-08 16:42 38.08668 13.98018 41005 ft 556 kts 69°
2026-05-08 16:43 38.11140 14.07327 41009 ft 556 kts 69°
2026-05-08 16:43 38.13601 14.16627 41010 ft 556 kts 69°
2026-05-08 16:44 38.16058 14.25945 41003 ft 556 kts 69°
2026-05-08 16:44 38.18510 14.35283 41008 ft 555 kts 69°
2026-05-08 16:45 38.20943 14.44578 41003 ft 555 kts 69°
2026-05-08 16:45 38.23380 14.53924 41005 ft 555 kts 69°
2026-05-08 16:46 38.25790 14.63202 41001 ft 555 kts 69°
2026-05-08 16:46 38.28205 14.72533 41002 ft 555 kts 69°
2026-05-08 16:47 38.30614 14.81876 41000 ft 554 kts 70°
2026-05-08 16:47 38.32999 14.91162 40997 ft 554 kts 70°
2026-05-08 16:48 38.35393 15.00515 41001 ft 554 kts 70°
2026-05-08 16:48 38.37375 15.08285 41001 ft 554 kts 70°
2026-05-08 16:49 38.39746 15.17615 41003 ft 554 kts 70°
2026-05-08 16:49 38.42116 15.26973 40997 ft 554 kts 70°
2026-05-08 16:50 38.44483 15.36357 41003 ft 554 kts 70°
2026-05-08 16:50 38.46829 15.45693 41003 ft 554 kts 70°
2026-05-08 16:51 38.49179 15.55082 41006 ft 554 kts 70°
2026-05-08 16:51 38.51518 15.64459 40999 ft 554 kts 70°
2026-05-08 16:52 38.53845 15.73827 41002 ft 553 kts 70°
2026-05-08 16:52 38.56149 15.83140 41002 ft 553 kts 70°
2026-05-08 16:53 38.59615 15.97213 41014 ft 552 kts 70°
2026-05-08 16:53 38.61910 16.06591 41008 ft 552 kts 70°
2026-05-08 16:54 38.64188 16.15922 41016 ft 552 kts 70°
2026-05-08 16:54 38.66477 16.25332 41012 ft 551 kts 70°
2026-05-08 16:55 38.68738 16.34662 41004 ft 551 kts 70°
2026-05-08 16:55 38.71002 16.44041 41020 ft 551 kts 70°
2026-05-08 16:56 38.73246 16.53378 41024 ft 551 kts 70°
2026-05-08 16:56 38.75501 16.62799 41030 ft 551 kts 70°
2026-05-08 16:57 38.77741 16.72195 41033 ft 551 kts 70°
2026-05-08 16:57 38.79959 16.81533 41009 ft 550 kts 70°
2026-05-08 16:58 38.82180 16.90928 40994 ft 550 kts 70°
2026-05-08 16:58 38.84392 17.00316 40982 ft 550 kts 70°
2026-05-08 16:59 38.86598 17.09719 40973 ft 550 kts 70°
2026-05-08 16:59 38.88793 17.19113 40975 ft 550 kts 70°
2026-05-08 17:00 38.90987 17.28536 40976 ft 550 kts 70°
2026-05-08 17:00 38.93162 17.37920 40990 ft 550 kts 70°
2026-05-08 17:01 38.95342 17.47365 40999 ft 550 kts 70°
2026-05-08 17:01 38.97508 17.56790 40999 ft 550 kts 70°
2026-05-08 17:02 38.99671 17.66236 41001 ft 550 kts 70°
2026-05-08 17:02 39.01813 17.75629 40993 ft 550 kts 71°
2026-05-08 17:03 39.03960 17.85082 40991 ft 551 kts 71°
2026-05-08 17:03 39.06099 17.94544 40989 ft 551 kts 71°
2026-05-08 17:04 39.08232 18.04016 40987 ft 551 kts 71°
2026-05-08 17:04 39.10358 18.13499 40986 ft 551 kts 71°
2026-05-08 17:05 39.12476 18.22983 40992 ft 551 kts 71°
2026-05-08 17:05 39.14587 18.32479 40993 ft 551 kts 71°
2026-05-08 17:06 39.16689 18.41972 40989 ft 551 kts 71°
2026-05-08 17:06 39.18775 18.51434 40990 ft 551 kts 71°
2026-05-08 17:07 39.20865 18.60958 40990 ft 550 kts 71°
2026-05-08 17:07 39.22928 18.70394 40994 ft 550 kts 71°
2026-05-08 17:08 39.24994 18.79888 40995 ft 550 kts 71°
2026-05-08 17:08 39.27055 18.89399 40994 ft 550 kts 71°
2026-05-08 17:09 39.29110 18.98925 40990 ft 549 kts 71°
2026-05-08 17:09 39.31418 19.08253 40990 ft 546 kts 65°
2026-05-08 17:10 39.34192 19.17395 40987 ft 545 kts 64°
2026-05-08 17:10 39.36924 19.26465 40989 ft 545 kts 65°
2026-05-08 17:11 39.39588 19.35657 40987 ft 545 kts 65°
2026-05-08 17:11 39.42209 19.44873 40986 ft 545 kts 65°
2026-05-08 17:12 39.44813 19.54080 40985 ft 544 kts 65°
2026-05-08 17:12 39.47008 19.61860 40988 ft 544 kts 65°
2026-05-08 17:13 39.49604 19.71075 40991 ft 544 kts 65°
2026-05-08 17:13 39.52189 19.80281 40992 ft 544 kts 65°
2026-05-08 17:14 39.54750 19.89436 40994 ft 543 kts 65°
2026-05-08 17:14 39.57319 19.98651 40995 ft 543 kts 65°
2026-05-08 17:15 39.59876 20.07856 40994 ft 543 kts 65°
2026-05-08 17:15 39.62432 20.17091 40997 ft 543 kts 65°
2026-05-08 17:16 39.64981 20.26329 41006 ft 543 kts 65°
2026-05-08 17:16 39.67517 20.35559 41015 ft 543 kts 65°
2026-05-08 17:17 39.70048 20.44808 41031 ft 543 kts 65°
2026-05-08 17:17 39.72552 20.53987 41040 ft 543 kts 65°
2026-05-08 17:18 39.75068 20.63241 41049 ft 543 kts 65°
2026-05-08 17:18 39.77572 20.72486 41052 ft 543 kts 66°
2026-05-08 17:19 39.80078 20.81771 41050 ft 542 kts 66°
2026-05-08 17:19 39.82556 20.90991 41049 ft 542 kts 66°
2026-05-08 17:20 39.85036 21.00253 41045 ft 542 kts 66°
2026-05-08 17:20 39.87506 21.09512 41048 ft 542 kts 66°
2026-05-08 17:21 39.89971 21.18779 41046 ft 541 kts 66°
2026-05-08 17:21 39.92425 21.28049 41048 ft 539 kts 66°
2026-05-08 17:22 39.94864 21.37294 41032 ft 539 kts 66°
2026-05-08 17:22 39.97297 21.46547 41034 ft 539 kts 66°
2026-05-08 17:23 39.99717 21.55789 41054 ft 538 kts 66°
2026-05-08 17:23 40.02128 21.65027 41051 ft 537 kts 66°
2026-05-08 17:24 40.04513 21.74198 41066 ft 537 kts 66°
2026-05-08 17:24 40.06906 21.83412 41091 ft 534 kts 69°
2026-05-08 17:25 40.09269 21.92559 41062 ft 530 kts 70°
2026-05-08 17:25 40.11607 22.01672 41065 ft 529 kts 70°
2026-05-08 17:26 40.13937 22.10777 41066 ft 528 kts 70°
2026-05-08 17:26 40.16263 22.19896 41066 ft 528 kts 70°
2026-05-08 17:27 40.18581 22.29012 41066 ft 528 kts 70°
2026-05-08 17:27 40.20890 22.38129 41063 ft 527 kts 70°
2026-05-08 17:28 40.23174 22.47181 41067 ft 527 kts 70°
2026-05-08 17:28 40.25465 22.56298 41063 ft 527 kts 70°
2026-05-08 17:29 40.27749 22.65421 41063 ft 527 kts 70°
2026-05-08 17:29 40.30024 22.74543 41057 ft 526 kts 71°
2026-05-08 17:30 40.32289 22.83656 41055 ft 526 kts 71°
2026-05-08 17:30 40.34550 22.92794 41053 ft 526 kts 71°
2026-05-08 17:31 40.36786 23.01860 41051 ft 526 kts 71°
2026-05-08 17:31 40.39031 23.11001 41052 ft 526 kts 71°
2026-05-08 17:32 40.41267 23.20142 41056 ft 526 kts 71°
2026-05-08 17:32 40.43491 23.29263 41060 ft 526 kts 71°
2026-05-08 17:33 40.45720 23.38446 41064 ft 526 kts 71°
2026-05-08 17:33 40.47935 23.47605 41067 ft 526 kts 71°
2026-05-08 17:34 40.50143 23.56771 41072 ft 526 kts 71°
2026-05-08 17:34 40.52342 23.65937 41077 ft 526 kts 71°
2026-05-08 17:35 40.54523 23.75062 41079 ft 526 kts 71°
2026-05-08 17:35 40.56706 23.84234 41078 ft 526 kts 71°
2026-05-08 17:36 40.58881 23.93409 41080 ft 525 kts 72°
2026-05-08 17:36 40.61050 24.02588 41085 ft 525 kts 72°
2026-05-08 17:37 40.62844 24.10219 41082 ft 525 kts 72°
2026-05-08 17:37 40.65001 24.19422 41073 ft 525 kts 72°
2026-05-08 17:38 40.67145 24.28612 41076 ft 524 kts 72°
2026-05-08 17:38 40.69283 24.37807 41064 ft 524 kts 72°
2026-05-08 17:39 40.71409 24.46988 41058 ft 524 kts 72°
2026-05-08 17:39 40.73513 24.56113 41063 ft 523 kts 72°
2026-05-08 17:40 40.75625 24.65310 41063 ft 523 kts 72°
2026-05-08 17:40 40.77729 24.74491 41052 ft 523 kts 72°
2026-05-08 17:41 40.79827 24.83684 41055 ft 523 kts 72°
2026-05-08 17:41 40.81913 24.92880 41061 ft 522 kts 72°
2026-05-08 17:42 40.83991 25.02076 41068 ft 522 kts 73°
2026-05-08 17:42 40.86063 25.11274 41071 ft 522 kts 73°
2026-05-08 17:43 40.88126 25.20472 41074 ft 522 kts 73°
2026-05-08 17:43 40.90164 25.29595 41082 ft 521 kts 73°
2026-05-08 17:44 40.92213 25.38792 41080 ft 521 kts 73°
2026-05-08 17:44 40.94255 25.47988 41082 ft 521 kts 73°
2026-05-08 17:45 40.96288 25.57186 41074 ft 520 kts 73°
2026-05-08 17:45 40.98300 25.66326 41073 ft 520 kts 73°
2026-05-08 17:46 41.00318 25.75531 41065 ft 520 kts 73°
2026-05-08 17:46 41.02325 25.84723 41060 ft 520 kts 73°
2026-05-08 17:47 41.04328 25.93940 41058 ft 519 kts 73°
2026-05-08 17:47 41.05982 26.01581 41065 ft 519 kts 73°
2026-05-08 17:48 41.08286 26.12273 41067 ft 519 kts 73°
2026-05-08 17:48 41.10274 26.21537 41069 ft 519 kts 73°
2026-05-08 17:49 41.11303 26.30911 41075 ft 518 kts 91°
2026-05-08 17:49 41.10959 26.35647 41072 ft 516 kts 102°
2026-05-08 17:49 41.10002 26.40233 41077 ft 514 kts 112°
2026-05-08 17:50 41.07373 26.49032 41072 ft 514 kts 115°
2026-05-08 17:50 41.04943 26.57919 41073 ft 517 kts 101°
2026-05-08 17:51 41.04734 26.62664 41078 ft 517 kts 85°
2026-05-08 17:51 41.05421 26.67326 41079 ft 516 kts 70°
2026-05-08 17:51 41.08232 26.76063 41080 ft 517 kts 65°
2026-05-08 17:52 41.11133 26.84797 41074 ft 517 kts 65°
2026-05-08 17:53 41.15390 26.97892 41079 ft 517 kts 66°
2026-05-08 17:53 41.18220 27.06672 41084 ft 517 kts 66°
2026-05-08 17:54 41.21041 27.15460 41084 ft 517 kts 66°
2026-05-08 17:54 41.23858 27.24265 41080 ft 517 kts 66°
2026-05-08 17:55 41.26666 27.33072 41083 ft 517 kts 66°
2026-05-08 17:55 41.29464 27.41878 41086 ft 517 kts 66°
2026-05-08 17:56 41.32256 27.50692 41082 ft 517 kts 66°
2026-05-08 17:56 41.35043 27.59519 41086 ft 517 kts 66°
2026-05-08 17:57 41.37801 27.68281 41086 ft 517 kts 66°
2026-05-08 17:57 41.40706 27.77017 41081 ft 515 kts 57°
2026-05-08 17:57 41.42878 27.80769 41086 ft 509 kts 42°
2026-05-08 17:58 41.45660 27.83638 41086 ft 502 kts 26°
2026-05-08 17:58 41.48839 27.85438 41087 ft 494 kts 12°
2026-05-08 17:58 41.52180 27.86439 41086 ft 492 kts
2026-05-08 17:59 41.58936 27.87984 41078 ft 493 kts
2026-05-08 17:59 41.65706 27.89482 41083 ft 493 kts
2026-05-08 18:00 41.72481 27.90984 41075 ft 493 kts
2026-05-08 18:00 41.82643 27.93240 41071 ft 493 kts
2026-05-08 18:01 41.86028 27.93994 40867 ft 493 kts
2026-05-08 18:01 41.89370 27.94777 40334 ft 495 kts
2026-05-08 18:01 41.92699 27.96308 39474 ft 506 kts 24°
2026-05-08 18:01 41.95654 27.98928 38543 ft 517 kts 39°
2026-05-08 18:02 41.98237 28.02302 37475 ft 513 kts 45°
2026-05-08 18:02 41.99789 28.04671 36776 ft 509 kts 50°
2026-05-08 18:02 42.02400 28.09900 35446 ft 508 kts 62°
2026-05-08 18:02 42.03782 28.14267 34484 ft 506 kts 73°
2026-05-08 18:03 42.04565 28.18862 33465 ft 503 kts 83°
2026-05-08 18:03 42.04727 28.23552 32412 ft 502 kts 94°
2026-05-08 18:03 42.04276 28.28215 31414 ft 507 kts 103°
2026-05-08 18:03 42.03226 28.32754 30437 ft 510 kts 113°
2026-05-08 18:04 42.01613 28.36984 29370 ft 508 kts 123°
2026-05-08 18:04 41.99493 28.40778 28289 ft 507 kts 133°
2026-05-08 18:04 41.96938 28.44022 27240 ft 504 kts 143°
2026-05-08 18:04 41.94032 28.46612 26368 ft 498 kts 153°
2026-05-08 18:05 41.90896 28.48511 25588 ft 490 kts 162°
2026-05-08 18:05 41.87678 28.49946 24820 ft 483 kts 166°
2026-05-08 18:05 41.84435 28.50565 24274 ft 468 kts 182°
2026-05-08 18:05 41.81360 28.50029 23723 ft 428 kts 198°
2026-05-08 18:06 41.78759 28.48452 23057 ft 396 kts 215°
2026-05-08 18:06 41.76822 28.46036 22475 ft 369 kts 234°
2026-05-08 18:06 41.75689 28.43089 21941 ft 347 kts 252°
2026-05-08 18:06 41.75088 28.40038 21258 ft 333 kts 255°
2026-05-08 18:07 41.74593 28.37045 20446 ft 325 kts 256°
2026-05-08 18:07 41.74130 28.34108 19619 ft 320 kts 256°
2026-05-08 18:07 41.73696 28.31252 18816 ft 315 kts 256°
2026-05-08 18:07 41.73265 28.28338 18122 ft 317 kts 256°
2026-05-08 18:08 41.72849 28.25488 17713 ft 314 kts 256°
2026-05-08 18:08 41.72436 28.22628 17284 ft 312 kts 256°
2026-05-08 18:08 41.72025 28.19776 16833 ft 310 kts 256°
2026-05-08 18:08 41.71621 28.16934 16389 ft 310 kts 256°
2026-05-08 18:09 41.71222 28.14098 15942 ft 309 kts 256°
2026-05-08 18:09 41.70835 28.11307 15503 ft 308 kts 256°
2026-05-08 18:09 41.70449 28.08483 15079 ft 308 kts 256°
2026-05-08 18:09 41.70068 28.05662 14650 ft 307 kts 256°
2026-05-08 18:10 41.69680 28.02857 14209 ft 306 kts 253°
2026-05-08 18:10 41.68992 28.00150 13420 ft 310 kts 239°
2026-05-08 18:10 41.67731 27.97835 12529 ft 315 kts 220°
2026-05-08 18:10 41.65867 27.96298 11610 ft 319 kts 198°
2026-05-08 18:11 41.63663 27.95940 10715 ft 325 kts 173°
2026-05-08 18:11 41.61563 27.96934 10316 ft 318 kts 149°
2026-05-08 18:11 41.59980 27.98916 10073 ft 307 kts 128°
2026-05-08 18:11 41.59118 28.01417 9563 ft 291 kts 107°
2026-05-08 18:12 41.58863 28.04072 8696 ft 288 kts 97°
2026-05-08 18:12 41.58763 28.06743 7890 ft 291 kts 97°
2026-05-08 18:12 41.58656 28.09449 7466 ft 290 kts 98°
2026-05-08 18:12 41.58540 28.12094 7099 ft 287 kts 98°
2026-05-08 18:13 41.58417 28.14756 6674 ft 286 kts 99°
2026-05-08 18:13 41.58285 28.17423 6224 ft 286 kts 99°
2026-05-08 18:13 41.58151 28.20068 5808 ft 284 kts 99°
2026-05-08 18:13 41.58016 28.22699 5395 ft 283 kts 99°
2026-05-08 18:14 41.57883 28.25303 5082 ft 279 kts 99°
2026-05-08 18:14 41.57750 28.27856 5003 ft 279 kts 99°
2026-05-08 18:14 41.57614 28.30454 4997 ft 279 kts 99°
2026-05-08 18:14 41.57479 28.33039 4995 ft 279 kts 99°
2026-05-08 18:15 41.57343 28.35626 4951 ft 279 kts 99°
2026-05-08 18:15 41.57208 28.38199 4835 ft 278 kts 99°
2026-05-08 18:15 41.57071 28.40780 4702 ft 278 kts 98°
2026-05-08 18:15 41.56935 28.43324 4576 ft 277 kts 98°
2026-05-08 18:16 41.56797 28.45900 4446 ft 276 kts 98°
2026-05-08 18:16 41.56632 28.48462 4321 ft 275 kts 101°
2026-05-08 18:16 41.56356 28.50980 4193 ft 275 kts 103°
2026-05-08 18:16 41.56048 28.53473 4069 ft 274 kts 103°
2026-05-08 18:17 41.55735 28.55989 3947 ft 275 kts 103°
2026-05-08 18:17 41.55423 28.58506 3813 ft 275 kts 103°
2026-05-08 18:17 41.55112 28.61029 3700 ft 275 kts 103°
2026-05-08 18:17 41.54802 28.63543 3561 ft 274 kts 103°
2026-05-08 18:18 41.54492 28.66060 3453 ft 275 kts 103°
2026-05-08 18:18 41.54101 28.68555 3316 ft 273 kts 111°
2026-05-08 18:18 41.53329 28.70461 3202 ft 266 kts 134°
2026-05-08 18:18 41.51901 28.71892 3089 ft 250 kts 160°
2026-05-08 18:19 41.50277 28.72355 2999 ft 230 kts 182°
2026-05-08 18:19 41.48735 28.72291 2984 ft 213 kts 186°
2026-05-08 18:19 41.47304 28.72264 2980 ft 198 kts 182°
2026-05-08 18:19 41.45974 28.72313 2980 ft 184 kts 182°
2026-05-08 18:20 41.44724 28.72351 2991 ft 180 kts 182°
2026-05-08 18:20 41.43494 28.72383 2944 ft 172 kts 183°
2026-05-08 18:20 41.42313 28.72407 2747 ft 168 kts 183°
2026-05-08 18:20 41.41162 28.72431 2537 ft 161 kts 183°
2026-05-08 18:21 41.40044 28.72458 2308 ft 158 kts 183°
2026-05-08 18:21 41.38942 28.72483 2098 ft 158 kts 183°
2026-05-08 18:21 41.37895 28.72508 1877 ft 146 kts 183°
2026-05-08 18:21 41.36897 28.72531 1700 ft 142 kts 184°
2026-05-08 18:22 41.35933 28.72553 1501 ft 134 kts 183°
2026-05-08 18:22 41.35017 28.72576 1341 ft 130 kts 183°
2026-05-08 18:22 41.34112 28.72614 1192 ft 130 kts 181°
2026-05-08 18:22 41.33222 28.72631 1007 ft 129 kts 184°
2026-05-08 18:23 41.32330 28.72623 846 ft 128 kts 178°
2026-05-08 18:23 41.31435 28.72658 671 ft 126 kts 178°
2026-05-08 18:23 41.30548 28.72681 537 ft 127 kts 181°
2026-05-08 18:23 41.29662 28.72699 375 ft 125 kts 179°
2026-05-08 18:24 41.28868 28.72715 336 ft 90 kts 179°
2026-05-08 18:24 41.28536 28.72722 336 ft 11 kts 179°
2026-05-08 18:24 41.28377 28.72726 336 ft 39 kts 179°
2026-05-08 18:24 41.28037 28.72737 339 ft 53 kts 178°
2026-05-08 18:25 41.27762 28.72842 336 ft 15 kts 149°
2026-05-08 18:25 41.27737 28.72861 336 ft 0 kts 149°
2026-05-08 18:26 41.27717 28.72878 337 ft 14 kts 149°
2026-05-08 18:27 41.27624 28.72950 335 ft 29 kts 154°
2026-05-08 18:27 41.27504 28.72979 338 ft 24 kts 176°
2026-05-08 18:27 41.27224 28.72981 336 ft 37 kts 178°
2026-05-08 18:27 41.26981 28.73001 336 ft 19 kts 144°
2026-05-08 18:28 41.26954 28.73182 340 ft 22 kts 90°
2026-05-08 18:28 41.26957 28.73439 337 ft 34 kts 87°
2026-05-08 18:28 41.26963 28.73765 340 ft 22 kts 89°
2026-05-08 18:28 41.26963 28.73788 340 ft 0 kts 89°
2026-05-08 18:30 41.26958 28.73837 335 ft 11 kts 113°
2026-05-08 18:31 41.26857 28.73873 335 ft 21 kts 180°
2026-05-08 18:31 41.26682 28.73874 336 ft 27 kts 178°
2026-05-08 18:31 41.26524 28.73863 337 ft 12 kts 220°
2026-05-08 18:31 41.26495 28.73786 336 ft 0 kts 249°
2026-05-08 18:32 41.26495 28.73784 336 ft 0 kts 249°
2026-05-08 18:33 41.26499 28.73799 338 ft 1 kts 249°
2026-05-08 18:33 41.26495 28.73784 336 ft 0 kts 249°
2026-05-08 18:33 41.26498 28.73798 337 ft 4 kts 246°
2026-05-08 18:34 41.26496 28.73789 336 ft 0 kts 250°